{"data":{"norad_id":53803,"intl_designator":"2022-111AG","name":"STARLINK-4727","alt_names":[],"object_type":"PAYLOAD","status":"ACTIVE","operator":null,"country":"US","launch_date":"2022-09-11","launch_site_code":"AFETR","launch_vehicle":null,"mission":null,"orbit_class":"UNKNOWN","rcs_meters":null,"size_class":null,"mass_kg":null,"dimensions":null,"purposes":["comms"],"wikipedia_slug":null,"has_3d_model":false,"image_url":null,"decayed_at":null,"tle_current":{"epoch":"2026-09-20T22:11:49.096320Z","epoch_age_seconds":47394,"freshness":"FRESH","line1":"1 53803U 22111AG  26263.92487380  .00000437  00000+0  24057-4 0  9991","line2":"2 53803  53.1614  83.3947 0001129  84.2933 275.8199 15.34391761223623","mean_motion":15.34391761,"eccentricity":0.0001129,"inclination_deg":53.1614,"raan_deg":83.3947,"arg_perigee_deg":84.2933,"mean_anomaly_deg":275.8199,"bstar":2.4057e-5,"rev_number":22362,"period_min":93.848262001975,"perigee_km":461.95539473314,"apogee_km":463.5000619888,"semimajor_km":6840.864728361,"source":"CELESTRAK","updated_at":"2026-09-21T09:00:32.996577Z"}}}